397  
ASUS45 KGGW 200115  
RWRGGW  
HOURLY REGIONAL WEATHER ROUNDUP FOR NORTHEAST MONTANA  
NATIONAL WEATHER SERVICE GLASGOW MONTANA  
700 PM MDT TUE SEP 19 2017  
 
NOTE: "FAIR" INDICATES FEW OR NO CLOUDS BELOW 12,000 FEET WITH NO  
SIGNIFICANT WEATHER AND/OR S TO VISISBILITY.  
 
NORTHEAST MONTANA  
 
 
CITY SKY/WX TMP DP RH WIND PRES REMARKS
 
GLASGOW MOCLDY 56 33 42 W10 29.57R  
WOLF POINT CLOUDY 55 41 59 SW6 29.58R  
JORDAN N/A 56 33 42 W7 29.61R  
WINNETT N/A 56 35 45 SE2 N/A  
SIDNEY LGT RAIN 56 36 47 W9 29.59R  
GLENDIVE N/A 53 38 56 W7 29.64R  
 
FORT PECK REPORTS  
 
 
CITY SKY/WX TMP DP RH WIND PRES REMARKS
 
FORT PECK N/A 58 34 40 W16G24 N/A  
THE PINES N/A 57 29 34 W7G18 N/A  
 
SOUTHEAST MONTANA  
 
 
CITY SKY/WX TMP DP RH WIND PRES REMARKS
 
BILLINGS CLOUDY 54 32 43 W6 29.69R  
MILES CITY MOCLDY 52 38 58 SW9 29.67R  
BAKER CLOUDY 49 40 71 W10 29.67S  
LIVINGSTON CLOUDY 44 34 67 W13 29.75R  
 
CENTRAL MONTANA  
 
 
CITY SKY/WX TMP DP RH WIND PRES REMARKS
 
HAVRE CLEAR 56 30 37 W12 29.57R  
LEWISTOWN CLOUDY 52 29 41 W9 29.65R  
GREAT FALLS CLOUDY 47 32 56 SW18G24 29.65R  
CUT BANK CLOUDY 44 33 65 SW16 29.61R  
HELENA CLOUDY 49 33 54 NW8 29.70R  
BUTTE LGT SNOW 34 34 100 E5 29.79R FOG  
BOZEMAN CLOUDY 44 37 76 SE9 29.75R  
 
WESTERN MONTANA  
 
 
CITY SKY/WX TMP DP RH WIND PRES REMARKS
 
MISSOULA CLOUDY 46 36 68 S7 29.76S  
KALISPELL NOT AVBL  
 
NORTH DAKOTA  
 
 
CITY SKY/WX TMP DP RH WIND PRES REMARKS
 
WILLISTON LGT RAIN 57 41 55 W14 29.56R  
DICKINSON LGT RAIN 50 48 93 W14 29.60S  
MINOT LGT RAIN 60 54 80 SW13G22 29.48S  
BISMARCK MOCLDY 61 45 55 W22G32 29.54R  
 
SOUTHERN SASKATCHEWAN  
 
 
CITY SKY/WX TMP DP RH WIND PRES REMARKS
 
REGINA MOCLDY 50 45 81 W8 29.46F  
MOOSE JAW MOCLDY 52 43 71 W12 29.50R  
ESTEVAN CLOUDY 55 48 76 NW5 29.49F  
SWIFT CURRENT CLEAR 50 32 50 W12 29.50F  
 
 
 
CLICK HERE TO GO TO PREVIOUS BULLETINS.

The Nexlab MT Page Main Text Page